Location: �couen
(49.0206°N, 2.3831°E)
Time: 04:59:22
(UTC+00:00)

ATLAS 3B R/B - Pass Details

Date: 25 May 2022
Orbit: 976 x 1218 km, 63.8° (Epoch: 20 June)

Event Time Altitude Azimuth Distance (km) Brightness Sun altitude
Rises 21:43:58 0° 318° (NW) 3,937 7.4 -14.7°
Reaches altitude 10° 21:46:35 10° 319° (NW) 3,010 6.4 -14.9°
Maximum altitude 21:53:51 85° 49° (NE) 1,181 2.9 -15.5°
Enters shadow 21:59:19 21° 138° (SE) 2,416 4.0 -15.9°
